Weather History for KCUL - March, 2013

Change the Weather History Date:

Monday, March 18, 2013

  Actual Average (KEVV) Record (KEVV)
Temperature  
Mean Temperature 43 °F 47 °F  
Max Temperature 48 °F 58 °F 82 °F (2012)
Min Temperature 38 °F 36 °F 13 °F (1902)
Degree Days  
Heating Degree Days 22 18  
Month to date heating degree days 381  
Since 1 July heating degree days 3955  
Cooling Degree Days 0 0  
Month to date cooling degree days 0  
Year to date cooling degree days 0  
Moisture  
Dew Point 41 °F    
Average Humidity 89    
Maximum Humidity 99    
Minimum Humidity 74    
Precipitation  
Precipitation 0.95 in 0.14 in 6.40 in (2008)
Month to date precipitation 2.32  
Year to date precipitation 8.59  
Snow  
Snow 0.00 in 0.10 in 0.30 in (1988)
Month to date snowfall 0.8  
Since 1 July snowfall 11.5  
Snow Depth -    
Sea Level Pressure  
Sea Level Pressure 29.77 in    
Wind  
Wind Speed 12 mph (WSW)    
Max Wind Speed 25 mph    
Max Gust Speed 31 mph    
Visibility 8 miles    
Events Rain , Thunderstorm    
T = Trace of Precipitation, MM = Missing Value Source: NWS Daily Summary

Daily Weather History Graph

Daily Weather History Graph

Search for Another Location

Airport or City:

Trip Planner

Search our weather history database for the weather conditions in past years. The results will help you decide how hot, cold, wet, or windy it might be!

Date:

Astronomy

Mar. 18, 2013 Rise Set
Actual Time 6:58 AM CDT 7:02 PM CDT
Civil Twilight 6:32 AM CDT 7:29 PM CDT
Nautical Twilight 6:01 AM CDT 7:59 PM CDT
Astronomical Twilight 5:30 AM CDT 8:30 PM CDT
Moon 11:03 AM CDT (3/18) 12:56 AM CDT (3/18)
Length of Visible Light 12h 56m
Length of Day
12h 04m
Waxing Crescent, 41% of the Moon is Illuminated
Mar 18
Waxing Crescent
Mar 19
First Quarter
Mar 27
Full
Apr 2
Last Quarter
Apr 10
New

Hourly Weather History & Observations

Time (CDT) Temp. Windchill Dew Point Humidity Pressure Visibility Wind Dir Wind Speed Gust Speed Precip Events Conditions
12:15 AM 40.3 °F 31.6 °F 38.3 °F 93% 29.86 in 7.0 mi ENE 17.3 mph - 0.04 in Rain Rain
12:35 AM 40.5 °F 30.0 °F 38.5 °F 93% 29.80 in 3.0 mi East 25.3 mph 31.1 mph 0.11 in Rain , Thunderstorm Rain
12:55 AM 40.6 °F 31.4 °F 39.2 °F 95% 29.78 in 1.5 mi East 19.6 mph - 0.38 in Thunderstorm Unknown
1:15 AM 41.0 °F 33.9 °F 39.4 °F 94% 29.80 in 2.5 mi East 12.7 mph - 0.13 in Thunderstorm Unknown
1:35 AM 41.0 °F 34.7 °F 39.7 °F 95% 29.77 in 4.0 mi East 10.4 mph - 0.21 in Rain , Thunderstorm Thunderstorms and Rain
1:55 AM 41.2 °F 33.7 °F 40.3 °F 97% 29.74 in 4.0 mi East 13.8 mph - 0.30 in Rain , Thunderstorm Thunderstorms and Rain
2:15 AM 41.5 °F 33.2 °F 41.0 °F 98% 29.70 in 4.0 mi ESE 17.3 mph 20.7 mph 0.08 in Rain , Thunderstorm Heavy Thunderstorms and Rain
2:35 AM 42.1 °F 36.6 °F 41.4 °F 97% 29.71 in 7.0 mi ESE 9.2 mph - 0.12 in Rain , Thunderstorm Thunderstorms and Rain
2:55 AM 42.4 °F 36.5 °F 41.9 °F 98% 29.70 in 7.0 mi SE 10.4 mph - 0.16 in Rain , Thunderstorm Rain
3:15 AM 42.4 °F 37.0 °F 41.5 °F 97% 29.70 in 10.0 mi SE 9.2 mph - 0.02 in Rain , Thunderstorm Rain
3:35 AM 42.6 °F 39.0 °F 41.9 °F 97% 29.68 in 7.0 mi ESE 5.8 mph - 0.07 in Rain , Thunderstorm Light Thunderstorms and Rain
3:55 AM 42.6 °F 39.9 °F 41.9 °F 97% 29.68 in 7.0 mi SE 4.6 mph - 0.08 in Rain , Thunderstorm Light Thunderstorms and Rain
4:15 AM 43.0 °F 41.3 °F 42.3 °F 97% 29.64 in 7.0 mi East 3.5 mph - 0.03 in Rain , Thunderstorm Light Thunderstorms and Rain
4:35 AM 43.0 °F 38.8 °F 42.3 °F 97% 29.67 in 10.0 mi SSE 6.9 mph - 0.03 in Rain Light Rain
4:55 AM 42.8 °F 37.5 °F 41.9 °F 97% 29.65 in 10.0 mi ESE 9.2 mph - 0.03 in Rain , Thunderstorm Light Thunderstorms and Rain
5:15 AM 42.8 °F 37.5 °F 41.9 °F 97% 29.64 in 10.0 mi ESE 9.2 mph - N/A   Overcast
5:35 AM 42.8 °F 40.1 °F 42.1 °F 97% 29.65 in 10.0 mi SE 4.6 mph - N/A Thunderstorm Overcast
5:55 AM 42.6 °F 40.9 °F 42.1 °F 98% 29.64 in 5.0 mi SE 3.5 mph - N/A   Overcast
6:15 AM 42.8 °F - 42.1 °F 97% 29.64 in 5.0 mi Calm Calm - N/A Thunderstorm Overcast
6:35 AM 42.8 °F 39.3 °F 42.3 °F 98% 29.67 in 5.0 mi West 5.8 mph - N/A Thunderstorm Overcast
6:55 AM 43.2 °F 41.5 °F 42.8 °F 99% 29.67 in 7.0 mi WSW 3.5 mph - N/A   Overcast
7:15 AM 43.3 °F 39.9 °F 42.8 °F 98% 29.67 in 3.0 mi West 5.8 mph - N/A   Overcast
7:55 AM 43.7 °F 41.1 °F 43.0 °F 97% 29.67 in 1.5 mi West 4.6 mph - N/A   Overcast
8:15 AM 43.7 °F 41.1 °F 43.2 °F 98% 29.67 in 2.5 mi West 4.6 mph - N/A   Overcast
8:35 AM 44.1 °F 40.8 °F 43.7 °F 99% 29.68 in 7.0 mi WSW 5.8 mph - N/A   Overcast
8:55 AM 44.1 °F 41.5 °F 43.7 °F 99% 29.69 in 5.0 mi SW 4.6 mph - N/A   Overcast
9:15 AM 44.2 °F 41.0 °F 43.7 °F 98% 29.71 in 4.0 mi SW 5.8 mph - N/A   Overcast
9:35 AM 44.6 °F 41.4 °F 43.9 °F 97% 29.70 in 5.0 mi WSW 5.8 mph - N/A   Overcast
9:55 AM 44.8 °F 39.4 °F 43.7 °F 96% 29.71 in 10.0 mi West 10.4 mph - N/A   Overcast
10:15 AM 45.9 °F 40.8 °F 44.1 °F 93% 29.71 in 10.0 mi WSW 10.4 mph 17.3 mph N/A   Overcast
10:35 AM 46.8 °F - 44.4 °F 92% 29.72 in 10.0 mi WSW 10.4 mph - N/A   Overcast
10:55 AM 46.8 °F - 43.9 °F 90% 29.73 in 10.0 mi West 11.5 mph - N/A   Overcast
11:15 AM 46.9 °F - 43.5 °F 88% 29.74 in 10.0 mi WSW 11.5 mph - N/A   Overcast
11:35 AM 47.5 °F - 43.2 °F 85% 29.73 in 10.0 mi West 11.5 mph - N/A   Overcast
11:55 AM 47.3 °F - 42.4 °F 83% 29.74 in 10.0 mi West 12.7 mph - N/A   Overcast
12:15 PM 47.5 °F - 42.4 °F 83% 29.75 in 10.0 mi West 12.7 mph - N/A   Overcast
12:35 PM 48.0 °F - 43.3 °F 84% 29.76 in 10.0 mi WSW 12.7 mph - N/A   Overcast
12:55 PM 47.5 °F - 42.8 °F 84% 29.75 in 10.0 mi West 16.1 mph - N/A   Overcast
1:15 PM 47.8 °F - 42.6 °F 82% 29.74 in 10.0 mi West 13.8 mph - N/A   Overcast
1:35 PM 47.3 °F - 41.9 °F 82% 29.76 in 10.0 mi West 12.7 mph - N/A   Overcast
1:55 PM 47.3 °F - 41.9 °F 82% 29.75 in 10.0 mi West 11.5 mph - N/A   Overcast
2:15 PM 47.3 °F - 42.1 °F 82% 29.74 in 10.0 mi West 15.0 mph - N/A   Overcast
2:35 PM 46.8 °F - 41.5 °F 82% 29.75 in 10.0 mi West 15.0 mph 21.9 mph N/A   Overcast
2:55 PM 46.4 °F 39.0 °F 41.0 °F 81% 29.76 in 10.0 mi West 19.6 mph 26.5 mph N/A   Overcast
3:15 PM 46.0 °F 38.5 °F 40.8 °F 82% 29.77 in 10.0 mi West 19.6 mph - N/A   Overcast
3:35 PM 45.9 °F 39.4 °F 40.6 °F 82% 29.78 in 10.0 mi West 15.0 mph - N/A   Overcast
3:55 PM 46.0 °F 39.3 °F 39.9 °F 79% 29.79 in 10.0 mi West 16.1 mph 21.9 mph N/A   Overcast
4:15 PM 46.0 °F 40.2 °F 40.1 °F 80% 29.80 in 10.0 mi WNW 12.7 mph 21.9 mph N/A   Overcast
4:35 PM 46.0 °F 39.9 °F 40.1 °F 80% 29.81 in 10.0 mi West 13.8 mph - N/A   Overcast
4:55 PM 46.2 °F 40.1 °F 40.1 °F 79% 29.81 in 10.0 mi West 13.8 mph - N/A   Overcast
5:15 PM 46.4 °F 40.4 °F 40.1 °F 79% 29.82 in 10.0 mi West 13.8 mph - N/A   Overcast
5:35 PM 46.4 °F 40.4 °F 39.9 °F 78% 29.83 in 10.0 mi West 13.8 mph 21.9 mph N/A   Overcast
5:55 PM 46.4 °F 40.4 °F 39.4 °F 77% 29.84 in 10.0 mi West 13.8 mph 20.7 mph N/A   Overcast
6:15 PM 46.6 °F - 39.6 °F 77% 29.85 in 10.0 mi West 12.7 mph 17.3 mph N/A   Overcast
6:35 PM 46.4 °F 41.5 °F 39.0 °F 75% 29.86 in 10.0 mi West 10.4 mph - N/A   Overcast
6:55 PM 45.5 °F 39.6 °F 37.9 °F 75% 29.87 in 10.0 mi WNW 12.7 mph 17.3 mph N/A   Mostly Cloudy
7:15 PM 44.1 °F 39.0 °F 37.6 °F 78% 29.88 in 10.0 mi WNW 9.2 mph - N/A   Scattered Clouds
7:35 PM 43.0 °F 39.5 °F 37.4 °F 81% 29.89 in 10.0 mi West 5.8 mph - N/A   Clear
7:55 PM 42.3 °F 39.4 °F 36.5 °F 80% 29.89 in 10.0 mi West 4.6 mph - N/A   Clear
8:15 PM 42.6 °F 40.9 °F 37.0 °F 81% 29.89 in 10.0 mi WSW 3.5 mph - N/A   Clear
8:35 PM 41.5 °F 38.6 °F 37.0 °F 84% 29.90 in 10.0 mi South 4.6 mph - N/A   Clear
8:55 PM 39.2 °F 35.0 °F 36.7 °F 91% 29.90 in 10.0 mi SSW 5.8 mph - N/A   Clear
9:15 PM 39.4 °F 36.1 °F 36.1 °F 88% 29.91 in 10.0 mi South 4.6 mph - N/A   Clear
9:35 PM 38.5 °F 35.0 °F 36.3 °F 92% 29.92 in 10.0 mi SSW 4.6 mph - N/A   Clear
9:55 PM 40.1 °F 35.3 °F 37.6 °F 91% 29.92 in 10.0 mi SSW 6.9 mph - N/A   Clear
10:15 PM 39.7 °F 36.5 °F 37.8 °F 93% 29.92 in 10.0 mi SSW 4.6 mph - N/A   Clear
10:35 PM 39.6 °F 35.4 °F 37.4 °F 92% 29.93 in 10.0 mi SW 5.8 mph - N/A   Clear
10:55 PM 39.2 °F 33.6 °F 37.2 °F 93% 29.94 in 10.0 mi SW 8.1 mph - N/A   Clear
11:15 PM 39.9 °F 33.9 °F 37.0 °F 89% 29.94 in 10.0 mi WSW 9.2 mph - N/A   Clear
11:35 PM 43.0 °F 35.1 °F 35.1 °F 74% 29.94 in 10.0 mi West 17.3 mph - N/A   Clear